Location: Betz
(49.1556°N, 2.9558°E)
Time: 02:27:35
(UTC+00:00)

Cosmos 2074 Rocket - Pass Details

Date: 18 September 2019
Orbit: 966 x 987 km, 82.9° (Epoch: 15 October)

Event Time Altitude Azimuth Distance (km) Brightness Sun altitude
Rises 18:19:26 0° 351° (N) 3,691 7.3 -4.7°
Reaches altitude 10° 18:21:59 10° 353° (N) 2,736 6.6 -5.1°
Maximum altitude 18:28:15 76° 79° (E) 1,004 4.0 -6.1°
Drops below altitude 10° 18:34:27 10° 166° (SSE) 2,705 6.1 -7.1°
Sets 18:36:57 0° 168° (SSE) 3,646 6.8 -7.5°
